Cloud_Cover
100 100 100 52 100 100 90 99 4 0 1 5 19 70 13 13 6 5 19 94 7 36 5 10 5 12 5 5 5 5 5 5 5 8 5 5 11 20 64 41 100 99 100
61 100 100 83 100 100 84 26 4 0 5 5 25 100 7 12 93 5 8 100 42 70 14 5 5 5 5 5 5 5 5 5 5 100 35 88 37 5 7 87 96 94 100
72 52 100 100 100 80 100 3 4 5 5 10 94 7 5 47 98 8 7 6 48 49 65 5 5 5 5 5 5 5 5 5 5 89 100 100 59 46 6 34 64 98 100
29 92 95 100 88 54 83 0 5 43 5 6 6 4 5 5 11 9 5 34 59 96 100 5 5 5 5 5 5 5 5 5 5 100 100 100 100 9 15 18 21 55 100
27 5 97 100 3 98 5 0 2 0 2 8 6 6 5 5 5 5 5 6 54 100 84 5 5 5 5 5 5 5 5 5 5 100 100 99 100 25 5 5 79 5 94
70 5 5 5 5 4 0 0 0 0 0 2 5 5 4 4 3 0 5 99 5 57 100 5 9 75 38 31 5 5 5 5 5 5 50 88 7 10 5 5 95 13 72
15 2 5 5 3 4 6 0 0 0 0 0 5 5 4 4 1 3 5 10 5 100 96 5 5 29 28 27 36 5 5 3 5 28 33 100 72 5 25 85 86 7 85
3 0 0 0 0 0 0 0 0 0 2 4 20 6 4 5 4 5 4 5 5 46 88 5 5 5 5 6 5 5 8 36 4 5 86 100 65 5 8 100 100 77 9
0 2 5 1 1 3 5 0 0 0 0 0 0 2 4 5 5 4 5 5 5 5 3 3 4 2 4 5 5 5 5 6 5 54 90 100 54 5 17 100 100 40 83
0 0 0 0 0 0 0 0 0 0 3 0 0 0 95 22 4 5 2 4 5 5 3 6 2 5 60 96 63 99 7 17 5 29 93 19 38 0 12 100 100 99 100
11 3 0 0 0 0 0 0 0 0 5 0 0 0 20 100 36 61 0 0 5 45 100 42 80 100 81 100 100 99 97 35 33 32 25 6 5 7 2 5 100 100 100
89 63 4 0 0 0 19 0 0 0 0 10 0 0 20 48 45 3 84 3 11 100 100 100 100 100 100 100 100 82 94 50 5 5 2 0 0 2 5 0 0 5 35
15 15 74 71 12 0 56 0 0 0 0 2 2 0 88 80 48 10 90 36 30 38 100 100 100 100 34 41 45 99 15 0 60 56 0 5 4 2 2 0 0 4 5
7 12 51 12 0 24 2 0 10 42 33 0 0 0 0 3 77 0 14 94 84 8 82 100 100 62 100 88 100 5 30 49 100 14 78 100 3 4 0 0 0 1 5
8 17 40 0 0 4 0 0 27 4 4 0 0 0 0 49 100 18 71 33 66 45 100 77 30 100 74 87 95 63 96 100 100 45 31 6 46 2 0 0 0 0 4
1 3 23 0 0 0 0 0 0 0 0 0 0 0 0 0 25 0 60 22 66 48 94 28 0 80 84 81 53 56 98 100 23 21 0 0 4 4 6 12 5 0 77
0 0 4 2 0 0 0 0 0 0 0 0 0 68 0 0 0 20 22 96 22 42 30 1 35 100 100 95 63 100 100 100 100 9 0 15 99 96 8 68 5 5 100
0 0 0 6 0 0 0 0 0 0 2 4 0 52 0 0 0 0 0 43 34 15 0 48 86 100 100 98 20 13 91 91 100 60 47 6 60 10 36 5 8 86 98
0 0 0 0 0 0 0 0 0 0 0 54 17 89 9 0 7 87 62 77 2 15 78 48 45 80 100 74 100 100 100 100 100 100 98 98 58 38 29 5 5 45 81
0 0 0 0 0 0 0 0 0 0 0 0 0 54 100 0 8 0 6 83 16 4 2 100 100 100 11 0 100 100 100 100 100 100 100 95 24 91 21 9 2 97 93
0 0 0 5 2 0 0 0 0 0 0 0 0 53 18 0 0 0 14 100 98 100 100 100 100 99 0 2 9 100 100 100 100 100 100 100 99 100 24 5 30 11 96
0 2 0 0 1 4 4 5 2 0 0 0 0 32 0 0 0 0 42 61 44 88 100 100 100 100 0 22 100 100 100 100 100 100 100 100 100 100 29 15 44 6 30
0 0 4 5 26 5 5 1 11 0 1 88 40 64 0 0 0 0 7 37 72 98 35 100 100 100 50 2 100 100 100 100 100 100 100 100 100 91 42 100 91 45 4
0 0 0 43 95 42 60 10 5 0 0 0 17 0 0 0 0 0 0 0 0 0 10 78 100 100 2 0 15 24 33 100 100 100 100 100 100 100 74 100 100 100 24
0 0 0 0 32 73 36 65 0 0 0 0 0 0 0 0 7 0 63 0 0 0 0 100 100 98 29 0 13 63 32 100 100 99 39 96 100 98 87 84 99 5 2
0 0 0 0 1 12 6 37 4 0 0 0 0 6 0 0 0 0 0 0 0 0 9 100 100 100 100 0 14 98 54 4 80 99 95 76 65 29 11 3 2 79 100